Hourly Weather Aberfeldy

Today, 5 August, Thursday

Time Temperature Precipitation Wind Pressure Humidity
00:00 +12°C° 0 mm 1 mps 728 mmHg 91%
01:00 +12°C° 0 mm 1 mps 728 mmHg 91%
02:00 +12°C° 0 mm 1 mps 727 mmHg 92%
03:00 +12°C° 0 mm 1 mps 727 mmHg 92%
04:00 +12°C° 0 mm 1 mps 727 mmHg 92%
05:00 +12°C° 0 mm 1 mps 726 mmHg 92%
06:00 +12°C° 0 mm 1 mps 726 mmHg 93%
07:00 +13°C° 0 mm 2 mps 726 mmHg 87%
08:00 +15°C° 0 mm 2 mps 726 mmHg 80%
09:00 +16°C° 0 mm 3 mps 725 mmHg 74%
10:00 +17°C° 0.2 mm 3 mps 725 mmHg 72%
11:00 +17°C° 0.2 mm 4 mps 724 mmHg 70%
12:00 +17°C° 0.2 mm 5 mps 724 mmHg 68%
13:00 +17°C° 0.5 mm 4 mps 724 mmHg 75%
14:00 +15°C° 0.5 mm 4 mps 723 mmHg 82%
15:00 +14°C° 0.5 mm 3 mps 723 mmHg 89%
16:00 +14°C° 0.5 mm 3 mps 723 mmHg 91%
17:00 +13°C° 0.5 mm 3 mps 722 mmHg 92%
18:00 +13°C° 0.5 mm 3 mps 722 mmHg 94%
19:00 +13°C° 0.3 mm 3 mps 722 mmHg 94%
20:00 +14°C° 0.3 mm 2 mps 722 mmHg 95%
21:00 +14°C° 0.3 mm 2 mps 721 mmHg 95%
22:00 +13°C° 0.4 mm 3 mps 721 mmHg 95%
23:00 +13°C° 0.4 mm 3 mps 721 mmHg 95%

Tomorrow, 6 August, Friday

Time Temperature Precipitation Wind Pressure Humidity
00:00 +13°C° 0.4 mm 3 mps 721 mmHg 96%
01:00 +13°C° 1.1 mm 3 mps 720 mmHg 96%
02:00 +13°C° 1.1 mm 3 mps 720 mmHg 97%
03:00 +13°C° 1.1 mm 3 mps 719 mmHg 98%
04:00 +13°C° 1.5 mm 3 mps 719 mmHg 98%
05:00 +13°C° 1.5 mm 3 mps 719 mmHg 98%
06:00 +14°C° 1.5 mm 2 mps 719 mmHg 98%
07:00 +13°C° 1.2 mm 3 mps 718 mmHg 98%
08:00 +13°C° 1.2 mm 3 mps 718 mmHg 97%
09:00 +14°C° 1.2 mm 4 mps 718 mmHg 97%
10:00 +14°C° 1.2 mm 3 mps 718 mmHg 96%
11:00 +14°C° 1.2 mm 3 mps 718 mmHg 95%
12:00 +14°C° 1.2 mm 3 mps 718 mmHg 94%
13:00 +16°C° 0.7 mm 3 mps 718 mmHg 93%
14:00 +16°C° 0.7 mm 2 mps 717 mmHg 91%
15:00 +16°C° 0.7 mm 2 mps 717 mmHg 90%
16:00 +16°C° 0.8 mm 2 mps 717 mmHg 91%
17:00 +16°C° 0.8 mm 2 mps 717 mmHg 92%
18:00 +16°C° 0.8 mm 2 mps 717 mmHg 92%
19:00 +15°C° 0.6 mm 2 mps 717 mmHg 93%
20:00 +14°C° 0.6 mm 1 mps 717 mmHg 95%
21:00 +14°C° 0.6 mm 1 mps 717 mmHg 96%
22:00 +14°C° 0.5 mm 1 mps 717 mmHg 96%
23:00 +14°C° 0.5 mm 1 mps 717 mmHg 96%

Day after tomorrow, 7 August, Saturday

Time Temperature Precipitation Wind Pressure Humidity
00:00 +13°C° 0.5 mm 1 mps 717 mmHg 96%
01:00 +13°C° 0.1 mm 1 mps 717 mmHg 97%
02:00 +13°C° 0.1 mm 1 mps 717 mmHg 97%
03:00 +14°C° 0.1 mm 1 mps 717 mmHg 98%
04:00 +14°C° 0.1 mm 1 mps 717 mmHg 97%
05:00 +14°C° 0.1 mm 1 mps 717 mmHg 97%
06:00 +14°C° 0.1 mm 1 mps 717 mmHg 96%
07:00 +14°C° 0.2 mm 1 mps 717 mmHg 96%
08:00 +14°C° 0.2 mm 1 mps 717 mmHg 95%
09:00 +14°C° 0.2 mm 1 mps 717 mmHg 94%
10:00 +15°C° 0.4 mm 1 mps 717 mmHg 92%
11:00 +15°C° 0.4 mm 2 mps 717 mmHg 91%
12:00 +15°C° 0.4 mm 2 mps 717 mmHg 90%
13:00 +15°C° 0.6 mm 2 mps 717 mmHg 90%
14:00 +15°C° 0.6 mm 2 mps 717 mmHg 91%
15:00 +15°C° 0.6 mm 2 mps 717 mmHg 91%
16:00 +15°C° 0.3 mm 1 mps 717 mmHg 91%
17:00 +15°C° 0.3 mm 1 mps 717 mmHg 92%
18:00 +15°C° 0.3 mm 1 mps 717 mmHg 92%
19:00 +14°C° 0.1 mm 1 mps 717 mmHg 94%
20:00 +14°C° 0.1 mm 1 mps 718 mmHg 95%
21:00 +13°C° 0.1 mm 1 mps 718 mmHg 97%
22:00 +12°C° 0 mm 0 mps 718 mmHg 97%
23:00 +12°C° 0 mm 0 mps 718 mmHg 97%

8 August, Sunday

Time Temperature Precipitation Wind Pressure Humidity
00:00 +12°C° 0 mm 0 mps 718 mmHg 97%
01:00 +12°C° 0 mm 0 mps 718 mmHg 98%
02:00 +12°C° 0 mm 0 mps 718 mmHg 98%
03:00 +12°C° 0 mm 0 mps 718 mmHg 98%
04:00 +12°C° 0.4 mm 0 mps 718 mmHg 98%
05:00 +12°C° 0.4 mm 0 mps 718 mmHg 97%
06:00 +13°C° 0.4 mm 0 mps 718 mmHg 97%
07:00 +14°C° 0.3 mm 1 mps 719 mmHg 95%
08:00 +15°C° 0.3 mm 1 mps 719 mmHg 92%
09:00 +15°C° 0.3 mm 1 mps 719 mmHg 89%
10:00 +16°C° 0.3 mm 1 mps 720 mmHg 85%
11:00 +18°C° 0.3 mm 1 mps 720 mmHg 81%
12:00 +19°C° 0.3 mm 1 mps 720 mmHg 76%
13:00 +19°C° 0.5 mm 1 mps 720 mmHg 76%
14:00 +19°C° 0.5 mm 2 mps 721 mmHg 75%
15:00 +19°C° 0.5 mm 2 mps 721 mmHg 74%
16:00 +19°C° 0.6 mm 2 mps 721 mmHg 78%
17:00 +18°C° 0.6 mm 2 mps 722 mmHg 81%
18:00 +18°C° 0.6 mm 2 mps 722 mmHg 84%
19:00 +16°C° 0.3 mm 2 mps 722 mmHg 87%
20:00 +15°C° 0.3 mm 2 mps 723 mmHg 90%
21:00 +14°C° 0.3 mm 2 mps 723 mmHg 93%
22:00 +13°C° 0 mm 2 mps 724 mmHg 94%
23:00 +13°C° 0 mm 2 mps 724 mmHg 95%

9 August, Monday

Time Temperature Precipitation Wind Pressure Humidity
00:00 +12°C° 0 mm 2 mps 725 mmHg 95%
01:00 +12°C° 0 mm 2 mps 725 mmHg 95%
02:00 +12°C° 0 mm 2 mps 725 mmHg 95%
03:00 +12°C° 0 mm 1 mps 726 mmHg 95%
04:00 +12°C° 0 mm 1 mps 726 mmHg 95%
05:00 +13°C° 0 mm 1 mps 727 mmHg 95%
06:00 +13°C° 0 mm 1 mps 727 mmHg 94%
07:00 +14°C° 0 mm 1 mps 728 mmHg 88%
08:00 +15°C° 0 mm 2 mps 729 mmHg 82%
09:00 +17°C° 0 mm 2 mps 729 mmHg 75%
10:00 +18°C° 0 mm 2 mps 730 mmHg 70%
11:00 +18°C° 0 mm 2 mps 730 mmHg 64%
12:00 +19°C° 0 mm 3 mps 731 mmHg 59%
13:00 +19°C° 0.1 mm 2 mps 731 mmHg 60%
14:00 +19°C° 0.1 mm 2 mps 731 mmHg 62%
15:00 +19°C° 0.1 mm 2 mps 732 mmHg 63%
16:00 +19°C° 0.1 mm 2 mps 732 mmHg 67%
17:00 +18°C° 0.1 mm 2 mps 732 mmHg 71%
18:00 +18°C° 0.1 mm 2 mps 733 mmHg 74%
19:00 +16°C° 0 mm 2 mps 733 mmHg 81%
20:00 +15°C° 0 mm 2 mps 734 mmHg 87%
21:00 +13°C° 0 mm 1 mps 734 mmHg 93%
22:00 +13°C° 0 mm 1 mps 734 mmHg 94%
23:00 +12°C° 0 mm 1 mps 735 mmHg 94%

10 August, Tuesday

Time Temperature Precipitation Wind Pressure Humidity
00:00 +12°C° 0 mm 1 mps 735 mmHg 95%
01:00 +11°C° 0 mm 1 mps 735 mmHg 95%
02:00 +11°C° 0 mm 1 mps 735 mmHg 95%
03:00 +10°C° 0 mm 1 mps 735 mmHg 95%
04:00 +11°C° 0 mm 1 mps 735 mmHg 94%
05:00 +11°C° 0 mm 1 mps 735 mmHg 92%
06:00 +12°C° 0 mm 1 mps 735 mmHg 91%
07:00 +13°C° 0 mm 1 mps 735 mmHg 84%
08:00 +15°C° 0 mm 1 mps 735 mmHg 77%
09:00 +18°C° 0 mm 1 mps 735 mmHg 70%
10:00 +19°C° 0 mm 1 mps 735 mmHg 68%
11:00 +19°C° 0 mm 2 mps 735 mmHg 66%
12:00 +20°C° 0 mm 2 mps 735 mmHg 64%
13:00 +20°C° 0 mm 2 mps 735 mmHg 66%
14:00 +20°C° 0 mm 2 mps 735 mmHg 67%
15:00 +20°C° 0 mm 2 mps 735 mmHg 69%
16:00 +19°C° 0 mm 2 mps 735 mmHg 73%
17:00 +19°C° 0 mm 2 mps 735 mmHg 77%
18:00 +18°C° 0 mm 2 mps 734 mmHg 81%
19:00 +18°C° 0 mm 1 mps 734 mmHg 84%
20:00 +18°C° 0 mm 1 mps 734 mmHg 87%
21:00 +16°C° 0 mm 1 mps 734 mmHg 90%
22:00 +16°C° 0 mm 1 mps 734 mmHg 91%
23:00 +15°C° 0 mm 1 mps 734 mmHg 92%
Show more

We Need Your Consent

Meteoprog and our Service Providers may store and access personal data such as cookies, device identifiers or other similar technologies on your device and process such data to personalise content and ads, as well as provide social media features and to analyse the traffic.

  • Store and/or access information on your device

    Cookies, device identifiers or other information can be stored or accessed on your device for the purposes indicated above.

  • Personalised ads and content, ad and content measurement, audience insights, and products development

    Ads and content can be personalised based on a profile. More data can be added to better personalise ads and content. Ad and content performance can be measured. Insights about the audience who saw the ads and content can be derived. Such data can be used to develop or improve user’s experience, systems and software.

By clicking ‘I Agree’ you will allow the use of indicated cookies, device identifiers, web beacons or other similar technologies. Your settings can be changed in the browser on your device.

For certain purposes, legitimate interests may be relied on, rather than consent. You can read more about this in our Privacy and Cookie Policy.